О сайте АЭРОКЛУБЫ И АЭРОДРОМЫ:

Добрый день Уважаемые посетители сайта!
Этот ресурс создан с целью предоставить любителям малой авиации максимум полезной информации и возможностей по обмену различными сведениями об аэродромах и интересных маршрутах. Для этого на сайте есть странички Аэродромы - информация из баз АОПА (в том виде как она предоставляется к свободному использованию) и Каталог аэродромов и аэроклубов , с различными вариантами поиска и сортировки, возможностью найти трансфер, арендовать авто или забронировать номер в гостинице on-line, а так же возможностями :
- для аэроклубов - добавить какую либо дополнительную информацию в страничку , посвященную аэроклубу
(чтобы добавить информацию необходимо зарегистрироваться, и подтвердить свою принадлежность к какому либо аэроклубу)
- для посетителей - поделиться каким либо интересным маршрутом, нарисовать его на карте, описать достопримечательности, загрузить фотографии и поставить в соответствие с каким либо клубом или аэродромом.
(чтобы добавить информацию необходимо зарегистрироваться)

Аэроклубы / Аэродромы в Москве

Карта аэродромов в Москве по коду ИКАО

Список аэродромов Москвы

Javascript is required to view this map.

Авиационная погода в Москва - Домодедово

Погода METAR: 
UUDD 280900Z 08005MPS 050V110 9999 BKN026 07/02 Q1029 R88/60D NOSIG
Время наблюдения
2021-09-28T09:00:00Z
Температура C
7.0
Точка росы
2.0
Направление ветра
80
Скорость ветра (узлы)
10
Метео видимость
6.21
Явления погоды
Условия полета
MVFR
Аэропорт подробнее: 

Авиационная погода в Москва - Шереметьево

Погода METAR: 
UUEE 280900Z 08006MPS 9999 BKN022 08/03 Q1030 R06R/290051 R06L/290051 NOSIG
Время наблюдения
2021-09-28T09:00:00Z
Температура C
8.0
Точка росы
3.0
Направление ветра
80
Скорость ветра (узлы)
12
Метео видимость
6.21
Явления погоды
Условия полета
MVFR
Аэропорт подробнее: 

Авиационная погода в Москва - Внуково

Погода METAR: 
UUWW 280900Z 07005MPS 9999 BKN020 07/03 Q1029 R06/290055 NOSIG
Время наблюдения
2021-09-28T09:00:00Z
Температура C
7.0
Точка росы
3.0
Направление ветра
70
Скорость ветра (узлы)
10
Метео видимость
6.21
Явления погоды
Условия полета
MVFR
Аэропорт подробнее: 

Аэроклубы и аэродромы по регионам Юга России